Weather reports worldwide

Advertisment
Brest, France (7110): temperature & dewpoint: 20.03.2019 08:00:00 - 26.03.2019 08:00:00 (CET)Brest, France (7110): temperature 5cm: 20.03.2019 08:00:00 - 26.03.2019 08:00:00 (CET)Brest, France (7110): temperature -20cm & temperature -100cm: 20.03.2019 08:00:00 - 26.03.2019 08:00:00 (CET)Brest, France (7110): wind speed & gusts: 20.03.2019 08:00:00 - 26.03.2019 08:00:00 (CET)Brest, France (7110): wind direction: 20.03.2019 08:00:00 - 26.03.2019 08:00:00 (CET)Brest, France (7110): reduced air pressure: 20.03.2019 08:00:00 - 26.03.2019 08:00:00 (CET)Brest, France (7110): visibility: 20.03.2019 08:00:00 - 26.03.2019 08:00:00 (CET)Brest, France (7110): sunshine duration: 20.03.2019 08:00:00 - 26.03.2019 08:00:00 (CET)Brest, France (7110): precipitation: 20.03.2019 08:00:00 - 26.03.2019 08:00:00 (CET)
Date & Time tt [°C] td [°C] tt 5cm [°C] tt -20cm [°C] tt -100cm [°C] ff [km/h] ff [kn] fx [km/h] fx [kn] dd ppp [hPa] vv [km] sd [min] rr [mm]
26.03.2019 08:00:00 2,2 -0,4 -4,9 9,3 9,8 6 3 9 5 E 1036,3 20 24 0,0
26.03.2019 07:00:00 3,0 -1,0 -4,8 9,4 9,8 8 4 15 8 E 1035,8 49 0 0,0
26.03.2019 06:00:00 2,9 0,0 -4,5 9,5 9,8 7 4 10 6 E 1035,5 36 0 0,0
26.03.2019 05:00:00 1,6 -0,7 -3,8 9,6 9,8 9 5 11 6 E 1035,6 38 0 0,0
26.03.2019 04:00:00 3,1 1,0 -2,9 9,7 9,8 5 3 13 7 E 1035,6 20 0 0,0
26.03.2019 03:00:00 3,6 1,5 -2,2 9,8 9,8 12 6 16 9 E 1035,7 20 0 0,0
26.03.2019 02:00:00 3,0 1,2 -3,4 9,9 9,8 13 7 15 8 ENE 1035,8 20 0 0,0
26.03.2019 01:00:00 2,4 0,1 -2,6 10,0 9,8 10 6 13 7 NNE 1036,1 34 0 0,0
26.03.2019 00:00:00 3,3 0,9 -1,5 10,0 9,8 8 5 16 9 ENE 1035,9 41 0 0,0
25.03.2019 23:00:00 3,6 1,1 -1,3 10,1 9,8 14 8 17 9 NE 1035,5 37 0 0,0
25.03.2019 22:00:00 4,1 1,0 -0,9 10,1 9,7 12 6 17 9 NE 1035,2 39 0 0,0
25.03.2019 21:00:00 4,9 1,2 1,6 10,2 9,8 10 6 19 10 NE 1034,8 42 0 0,0
25.03.2019 20:00:00 6,4 1,9 4,3 10,1 9,8 13 7 34 18 NE 1034,2 45 24 0,0
25.03.2019 19:00:00 8,1 2,1 7,2 10,1 9,8 19 10 38 20 NE 1033,6 14 60 0,0
25.03.2019 18:00:00 9,3 1,9 10,4 10,0 9,7 22 12 39 21 NNE 1033,3 17 60 0,0
25.03.2019 17:00:00 10,1 2,4 12,4 9,9 9,7 23 12 38 20 NE 1033,1 20 48 0,0
25.03.2019 16:00:00 10,7 3,9 13,3 9,8 9,7 24 13 41 22 NE 1033,2 20 47 0,0
25.03.2019 15:00:00 11,0 4,7 15,5 9,8 9,7 22 12 39 21 NNE 1033,2 20 52 0,0
25.03.2019 14:00:00 11,5 5,1 14,3 9,7 9,7 23 13 42 23 NNE 1033,5 38 55 0,0
25.03.2019 13:00:00 11,0 4,0 13,8 9,7 9,7 22 12 45 24 NNE 1034,0 18 55 0,0
25.03.2019 12:00:00 10,4 3,4 11,9 9,7 9,7 25 13 45 25 NNE 1034,5 23 47 0,0
25.03.2019 11:00:00 10,4 5,8 11,6 9,7 9,7 28 15 44 24 NNE 1034,7 27 54 0,0
25.03.2019 10:00:00 10,2 6,0 11,6 9,8 9,7 23 13 41 22 N 1034,1 19 58 0,0
25.03.2019 09:00:00 9,3 6,6 5,5 9,9 9,7 16 9 29 15 NNE 1033,8 19 60 0,0
25.03.2019 08:00:00 6,7 5,0 0,0 9,9 9,7 11 6 22 12 N 1033,3 19 22 0,0
25.03.2019 07:00:00 5,5 4,0 2,7 10,0 9,7 9 5 19 11 NNE 1032,9 30 0 0,0
25.03.2019 06:00:00 5,8 4,3 2,9 10,1 9,7 13 7 21 11 N 1032,8 35 0 0,0
25.03.2019 05:00:00 5,8 4,1 3,6 10,2 9,7 11 6 21 12 N 1032,7 34 0 0,0
25.03.2019 04:00:00 5,7 3,9 3,4 10,3 9,7 12 7 22 12 N 1032,8 46 0 0,0
25.03.2019 03:00:00 5,4 3,4 2,6 10,3 9,7 11 6 16 9 N 1033,1 50 0 0,0
25.03.2019 02:00:00 5,4 2,9 3,0 10,4 9,7 10 5 18 10 N 1033,2 50 0 0,0
25.03.2019 01:00:00 5,6 2,8 3,5 10,5 9,7 11 6 18 10 N 1033,5 59 0 0,0
25.03.2019 00:00:00 5,8 3,0 3,5 10,6 9,7 10 5 18 10 N 1033,5 39 0 0,0
24.03.2019 23:00:00 6,3 3,6 4,0 10,6 9,7 10 5 16 9 N 1033,6 32 0 0,0
24.03.2019 22:00:00 6,9 4,4 4,8 10,5 9,7 8 5 16 9 N 1033,6 17 0 0,0
24.03.2019 21:00:00 8,1 5,9 6,5 10,6 9,7 6 3 21 11 N 1033,1 9 0 0,0
24.03.2019 20:00:00 8,1 5,7 6,6 10,5 9,7 10 5 22 12 N 1033,0 16 0 0,0
24.03.2019 19:00:00 9,3 6,0 9,3 10,5 9,7 13 7 30 16 NNE 1032,6 18 35 0,0
24.03.2019 18:00:00 9,9 6,2 11,1 10,4 9,7 19 10 30 16 NNE 1032,3 32 37 0,0
24.03.2019 17:00:00 10,9 6,2 13,5 10,3 9,7 18 10 33 18 NNE 1031,9 32 60 0,0
24.03.2019 16:00:00 12,0 6,7 15,0 10,3 9,7 24 13 36 20 NNE 1031,9 20 49 0,0
24.03.2019 15:00:00 12,0 5,6 15,8 10,1 9,7 18 10 36 19 NNE 1032,1 26 50 0,0
24.03.2019 14:00:00 11,7 6,4 15,9 10,1 9,7 22 12 36 19 NNE 1032,3 33 46 0,0
24.03.2019 13:00:00 11,7 6,8 14,6 10,1 9,6 18 10 29 16 NE 1032,0 20 38 0,0
24.03.2019 12:00:00 10,6 7,3 14,2 10,1 9,7 15 8 26 14 NNE 1032,2 13 22 0,0
24.03.2019 11:00:00 9,6 9,1 9,6 10,1 9,6 9 5 18 10 NNE 1032,3 4,5 0 0,0
24.03.2019 10:00:00 7,9 7,6 8,1 10,1 9,6 8 4 18 10 NE 1032,3 2,4 0 0,0
24.03.2019 09:00:00 7,1 6,8 6,2 10,2 9,6 7 4 14 7 NNE 1031,9 2,7 0 0,0
24.03.2019 08:00:00 5,7 5,4 4,5 10,3 9,6 6 4 13 7 NNE 1031,1 0,2 0 0,0
24.03.2019 07:00:00 4,9 4,6 4,1 10,3 9,6 6 4 16 9 NE 1030,3 0,2 0 0,0
24.03.2019 06:00:00 5,5 5,2 5,2 10,4 9,6 12 7 19 10 ENE 1030,1 0,1 0 0,0
24.03.2019 05:00:00 6,0 5,6 2,1 10,4 9,6 12 6 19 10 NNE 1030,3 0,2 0 0,0
24.03.2019 04:00:00 6,0 5,1 2,3 10,5 9,6 6 3 12 6 NE 1030,2 2,4 0 0,0
24.03.2019 03:00:00 7,1 6,0 5,1 10,5 9,6 7 4 14 8 NE 1030,2 3,5 0 0,0
24.03.2019 02:00:00 8,4 6,9 7,8 10,6 9,6 12 7 20 11 NE 1029,9 5 0 0,0
24.03.2019 01:00:00 8,7 7,1 8,3 10,6 9,6 16 8 21 12 ENE 1029,9 5 0 0,0
24.03.2019 00:00:00 8,9 7,2 8,4 10,6 9,6 13 7 18 10 NE 1030,0 5 0 0,0
23.03.2019 23:00:00 9,0 7,1 8,1 10,6 9,6 13 7 17 9 ENE 1030,1 6 0 0,0
23.03.2019 22:00:00 9,1 7,0 8,7 10,6 9,6 13 7 22 12 NE 1030,1 9 0 0,0
23.03.2019 21:00:00 9,4 7,0 8,9 10,6 9,6 15 8 26 14 NE 1029,8 10 0 0,0
23.03.2019 20:00:00 9,9 6,8 9,3 10,6 9,6 19 10 30 16 NE 1029,4 17 0 0,0
23.03.2019 19:00:00 11,0 6,7 10,8 10,5 9,6 20 11 34 18 NE 1028,8 25 0 0,0
23.03.2019 18:00:00 12,4 7,5 12,8 10,4 9,6 22 12 37 20 NE 1028,4 18 51 0,0
23.03.2019 17:00:00 14,1 8,5 15,4 10,3 9,6 21 11 35 19 NNE 1028,3 20 33 0,0
23.03.2019 16:00:00 13,4 9,1 15,3 10,1 9,6 18 10 31 17 NNE 1028,7 15 35 0,0
23.03.2019 15:00:00 14,5 8,2 18,4 10,1 9,6 21 11 29 16 ENE 1028,8 19 16 0,0
23.03.2019 14:00:00 14,3 8,5 18,5 10,0 9,6 15 8 26 14 NE 1029,3 16 54 0,0
23.03.2019 13:00:00 13,3 9,0 20,4 10,0 9,6 15 8 28 15 NE 1029,9 14 60 0,0
23.03.2019 12:00:00 11,2 8,4 18,0 9,9 9,6 19 10 32 17 NE 1030,4 12 60 0,0
23.03.2019 11:00:00 10,1 8,2 13,0 10,0 9,6 19 11 26 14 NE 1030,6 8 55 0,0
23.03.2019 10:00:00 8,6 8,3 9,6 10,0 9,5 13 7 19 10 NNE 1030,8 2,6 18 0,0
23.03.2019 09:00:00 6,9 6,6 6,6 10,1 9,5 9 5 16 8 NNE 1030,7 0,6 0 0,0
23.03.2019 08:00:00 6,0 5,7 3,2 10,1 9,5 7 4 13 7 NNE 1030,2 0,1 0 0,0
23.03.2019 07:00:00 6,0 5,7 5,1 10,2 9,6 11 6 14 8 E 1029,9 0,1 0 0,0
23.03.2019 06:00:00 6,2 5,9 4,9 10,3 9,5 6 3 17 9 NE 1029,9 0,1 0 0,0
23.03.2019 05:00:00 5,3 5,0 3,2 10,4 9,6 5 3 13 7 NNE 1029,9 0,1 0 0,0
23.03.2019 04:00:00 5,1 4,8 3,3 10,4 9,6 8 4 11 6 E 1029,6 0,1 0 0,0
23.03.2019 03:00:00 6,5 6,2 4,1 10,5 9,5 7 4 12 6 NE 1029,7 0,1 0 0,0
23.03.2019 02:00:00 6,7 6,3 0,4 10,5 9,5 7 4 9 5 NE 1029,9 0,1 0 0,0
23.03.2019 01:00:00 6,6 6,0 0,2 10,6 9,5 6 4 9 5 NE 1029,8 0,2 0 0,0
23.03.2019 00:00:00 7,8 6,7 1,2 10,6 9,6 8 4 11 6 N 1030,2 3,6 0 0,0
22.03.2019 23:00:00 8,8 7,4 6,9 10,6 9,5 9 5 15 8 NNE 1030,2 7 0 0,0
22.03.2019 22:00:00 9,3 8,2 9,3 10,6 9,5 8 4 16 9 N 1029,9 4,5 0 0,0
22.03.2019 21:00:00 9,7 8,3 9,2 10,5 9,5 9 5 16 9 N 1029,6 5 0 0,0
22.03.2019 20:00:00 10,2 8,3 9,2 10,4 9,5 9 5 19 10 NNW 1029,2 6 0 0,0
22.03.2019 19:00:00 11,0 8,7 11,3 10,3 9,5 13 7 19 10 NNW 1028,6 7 0 0,0
22.03.2019 18:00:00 13,2 9,1 15,5 10,1 9,5 12 6 19 10 NNW 1028,1 11 34 0,0
22.03.2019 17:00:00 14,6 9,6 16,9 10,0 9,5 9 5 21 11 N 1027,9 14 29 0,0
22.03.2019 16:00:00 17,3 9,7 20,6 9,8 9,5 3 2 16 9 SSE 1027,9 19 60 0,0
22.03.2019 15:00:00 16,3 7,0 24,0 9,7 9,5 8 4 22 12 S 1028,2 19 60 0,0
22.03.2019 14:00:00 15,2 7,7 21,0 9,6 9,5 5 3 17 9 SSE 1028,4 20 51 0,0
22.03.2019 13:00:00 15,1 8,1 19,2 9,6 9,5 6 3 16 9 S 1028,8 10 42 0,0
22.03.2019 12:00:00 14,5 8,2 22,2 9,6 9,5 10 5 16 9 S 1028,9 20 58 0,0
22.03.2019 11:00:00 13,0 7,9 15,0 9,6 9,5 6 4 13 7 S 1029,2 17 60 0,0
22.03.2019 10:00:00 10,6 7,8 11,0 9,7 9,5 7 4 11 6 S 1029,3 16 38 0,0
22.03.2019 09:00:00 8,1 7,5 4,0 9,7 9,5 4 2 8 4 ESE 1029,3 12 6 0,0
22.03.2019 08:00:00 5,6 4,9 -0,8 9,8 9,5 5 3 14 8 E 1029,4 5 12 0,0
22.03.2019 07:00:00 5,5 4,5 -0,4 9,8 9,5 10 5 15 8 ESE 1028,8 10 0 0,0
22.03.2019 06:00:00 6,1 5,1 2,5 9,9 9,5 9 5 11 6 E 1028,9 11 0 0,0
22.03.2019 05:00:00 6,8 5,7 5,7 10,0 9,5 6 3 8 5 NNE 1029,2 13 0 0,0
22.03.2019 04:00:00 6,3 5,1 1,7 10,0 9,5 4 2 8 4 N 1029,8 16 0 0,0
22.03.2019 03:00:00 6,7 5,0 0,3 10,0 9,5 6 3 14 8 NW 1030,1 14 0 0,0
22.03.2019 02:00:00 7,4 5,0 3,9 10,1 9,5 11 6 20 11 SE 1030,2 35 0 0,0
22.03.2019 01:00:00 9,1 6,2 8,4 10,1 9,5 12 7 23 12 SE 1030,3 44 0 0,0
22.03.2019 00:00:00 9,7 7,5 9,5 10,1 9,5 10 5 16 9 ESE 1031,2 26 0 0,0
21.03.2019 23:00:00 9,9 7,8 9,6 10,1 9,5 9 5 15 8 E 1031,4 19 0 0,0
21.03.2019 22:00:00 10,0 7,9 9,6 10,1 9,5 8 4 14 8 NE 1031,9 20 0 0,0
21.03.2019 21:00:00 10,1 7,3 9,6 10,1 9,5 8 4 16 9 ENE 1031,7 37 0 0,0
21.03.2019 20:00:00 10,2 7,1 9,8 10,0 9,5 9 5 16 9 NE 1032,1 34 0 0,0
21.03.2019 19:00:00 10,6 8,0 10,5 10,0 9,5 10 5 16 9 NE 1031,8 35 0 0,0
21.03.2019 18:00:00 10,8 8,0 11,1 9,9 9,5 9 5 16 9 NE 1032,0 36 0 0,0
21.03.2019 17:00:00 11,5 8,5 12,9 9,9 9,5 9 5 15 8 NNE 1032,1 34 0 0,0
21.03.2019 16:00:00 12,1 8,0 13,6 9,8 9,5 8 4 13 7 NNE 1032,7 39 0 0,0
21.03.2019 15:00:00 12,3 6,3 14,6 9,7 9,5 6 4 11 6 SSW 1033,3 20 0 0,0
21.03.2019 14:00:00 12,6 7,7 15,0 9,7 9,5 0 0 8 5 N 1034,2 19 0 0,0
21.03.2019 13:00:00 12,4 7,5 14,8 9,6 9,5 0 0 6 4 N 1034,7 37 0 0,0
21.03.2019 12:00:00 12,5 8,0 14,5 9,6 9,5 4 2 9 5 ESE 1034,8 50 0 0,0
21.03.2019 11:00:00 11,3 8,5 13,0 9,6 9,5 3 2 8 4 NE 1035,2 27 0 0,0
21.03.2019 10:00:00 10,2 8,6 10,6 9,6 9,5 4 2 6 3 E 1035,1 19 0 0,0
21.03.2019 09:00:00 9,7 8,9 9,2 9,6 9,5 3 2 8 5 E 1035,2 13 0 0,0
21.03.2019 08:00:00 9,2 8,6 8,4 9,6 9,5 8 4 9 5 N 1034,8 11 0 0,0
21.03.2019 07:00:00 9,0 8,4 8,3 9,6 9,5 0 0 4 2 N 1034,6 6 0 0,0
21.03.2019 06:00:00 9,1 8,5 8,4 9,6 9,5 3 1 4 2 W 1034,3 16 0 0,0
21.03.2019 05:00:00 9,2 8,6 8,6 9,7 9,5 3 1 6 4 WSW 1034,2 10 0 0,0
21.03.2019 04:00:00 9,4 8,8 9,1 9,7 9,5 4 2 10 5 SSW 1034,4 14 0 0,0
21.03.2019 03:00:00 9,4 8,8 9,1 9,7 9,5 9 5 11 6 S 1034,7 15 0 0,0
21.03.2019 02:00:00 9,5 8,9 9,0 9,7 9,5 4 2 7 4 S 1035,1 6 0 0,0
21.03.2019 01:00:00 9,7 9,1 9,1 9,7 9,5 5 3 7 4 SSW 1035,4 4,8 0 0,0
21.03.2019 00:00:00 9,6 8,8 8,9 9,7 9,5 5 3 7 4 S 1035,5 3,9 0 0,0
20.03.2019 23:00:00 9,7 9,1 9,2 9,7 9,5 4 2 9 5 S 1035,5 13 0 0,0
20.03.2019 22:00:00 9,8 9,0 9,4 9,6 9,5 6 3 9 5 S 1035,6 18 0 0,4
20.03.2019 21:00:00 9,9 8,8 9,5 9,6 9,5 5 3 11 6 S 1035,4 8 0 0,0
20.03.2019 20:00:00 10,3 8,9 9,8 9,6 9,5 5 3 16 9 SW 1034,9 40 0 0,0
20.03.2019 19:00:00 10,8 9,1 10,8 9,5 9,5 13 7 17 9 SW 1034,8 60 0 0,0
20.03.2019 18:00:00 11,2 9,3 11,5 9,4 9,5 9 5 18 10 WSW 1034,4 43 4 0,0
20.03.2019 17:00:00 11,5 9,4 12,1 9,3 9,5 13 7 18 10 WSW 1034,1 58 2 0,0
20.03.2019 16:00:00 11,1 9,5 11,8 9,2 9,5 11 6 19 10 SSW 1034,4 43 0 0,0
20.03.2019 15:00:00 11,1 9,8 11,8 9,2 9,5 13 7 20 11 SSW 1034,8 58 0 0,0
20.03.2019 14:00:00 11,0 9,7 12,5 9,1 9,5 15 8 22 12 SW 1035,0 37 0 0,0
20.03.2019 13:00:00 10,9 9,8 12,1 9,0 9,5 14 8 22 12 SSW 1035,3 5 0 0,0
20.03.2019 12:00:00 10,5 9,9 11,4 9,0 9,5 13 7 21 11 SSW 1035,2 20 0 0,0
20.03.2019 11:00:00 10,3 10,0 10,6 9,0 9,5 15 8 21 11 SSW 1035,2 14 0 0,0
20.03.2019 10:00:00 9,8 9,5 9,7 9,0 9,5 12 6 17 9 SSW 1035,0 0,7 0 0,0
20.03.2019 09:00:00 9,2 8,9 8,9 9,0 9,5 13 7 18 10 S 1034,6 0,5 0 0,2
20.03.2019 08:00:00 8,8 8,5 8,7 9,0 9,5 8 4 11 6 S 1033,9 0,7 0 0,2

tt = temperature
td = dewpoint
tt 5cm = temperature 5cm
tt -20cm = temperature -20cm
tt -100cm = temperature -100cm
ff = wind speed
fx = gusts
dd = wind direction
ppp = reduced air pressure
vv = visibility
sd = sunshine duration
rr = precipitation

Next stations